DELTA 1 DEB, 21910

Orbit data source: Space-Track

DELTA 1 DEB, 21910 is space debris in SSO originally from a launch on Thu, 12 Jun 1975 UTC launched from the Air Force Western Test Range (AFWTR). Debris objects in space refer to the collection of defunct objects orbiting the Earth. Examples of debris include non-operational satellites, rocket bodies, and fragments generated from explosions, collisions, or faulty payload assembly.

Loading next visibility...
Identifier
21910, 1975-052JR
Orbit
SSO
Country
Flag of USUS
Related business
Manufacturer
Unknown
Mission
Spacecraft
Bus & Motor
Unknown
Mass
Unknown
Launch date (UTC)
1975-06-12 (51 years ago)
Launch vehicle
Unknown
Launch site
Air Force Western Test Range (AFWTR)
Object type
Payload
Rocket body
Debris
Shape & HBR
Unknown shape, 0.1 m
Radar Cross Section
Small (<0.1 m²)

Expand to show TLE details & history
Last TLE update: 2 days ago

TLE from 2 days ago
0 DELTA 1 DEB
1 21910U 75052JR  26124.94247712  .00000201  00000-0  80721-3 0  9997
2 21910  99.6346 125.7483 0330019 117.2659 276.1320 12.80839567618486
Epoch: 2026-05-04T22:37Z
TLE epoch observation values (Epoch: 2026-05-04T22:37:10.023Z)
Latitude
29.21114°
Longitude
-81.78724°
Altitude
1,322.689 km
Speed
7.207 km/s
True Right ascension
08h 01m 18s
True Declination
29° 04' 32"
Sunlit
Object was in daylight at epoch
Visualization orbit readout
Latitude
Unknown
Longitude
Unknown
Altitude
Unknown
Speed
Unknown
Apparent Right ascension
Unknown
Apparent Declination
Unknown
Sunlit
N/A
Visualization observer readout
Local Sidereal Time
18:16:13
Azimuth
Unknown
Elevation
Unknown
Doppler factor
Unknown
Orbital elements
Apogee altitude
1,590.048 km
Perigee altitude
1,080.919 km
Semi-major axis
7,713.62 km
Eccentricity
0.033
Inclination
99.6346°
RAAN
125.7483°
Arg. of periapsis
117.2659°
True anomaly
272.35799°
Mean anomaly
276.132°
Eccentric anomaly
274.24632°
Mean motion
3.20373 °/min
Orbital period
112.37 mins
BSTAR
0.00080721
Loading maneuver chart data...
Computing Atmospheric mass density...
Loading historical data...
Loading historical data...
Loading historical data...
Loading historical data...
Loading historical data...
Loading historical data...
Loading historical data...

Documentation

Showing up to 5 results
|